Weather History for Montreal Mirabel, QC

Change the Weather History Date:

Thursday, October 3, 2013

  Actual Average Record
Temperature  
Mean Temperature 56 °F -  
Max Temperature 69 °F 57 °F 77 °F (2005)
Min Temperature 44 °F 38 °F 32 °F (1996)
Degree Days  
Heating Degree Days 8    
Growing Degree Days 6 (Base 50)    
Moisture  
Dew Point 45 °F    
Average Humidity 67    
Maximum Humidity 93    
Minimum Humidity 40    
Precipitation  
Precipitation 0.00 in - - ()
Sea Level Pressure  
Sea Level Pressure 30.06 in    
Wind  
Wind Speed 4 mph ()    
Max Wind Speed 9 mph    
Max Gust Speed -    
Visibility 20.0 miles    
Events      
Averages and records for this station are not official NWS values.
T = Trace of Precipitation, MM = Missing Value Source: Averaged Metar Reports

Daily Weather History Graph

Daily Weather History Graph

Search for Another Location

Airport:

Trip Planner

Search our weather history database for the weather conditions in past years. The results will help you decide how hot, cold, wet, or windy it might be!

Date:

Astronomy

Oct. 03, 2013 Rise Set
Actual Time 6:57 AM EDT 6:32 PM EDT
Civil Twilight 6:27 AM EDT 7:01 PM EDT
Nautical Twilight 5:53 AM EDT 7:36 PM EDT
Astronomical Twilight 5:18 AM EDT 8:10 PM EDT
Moon 5:25 AM EDT (10/3) 5:40 PM EDT (10/3)
Length of Visible Light 12h 34m
Length of Day
11h 34m
Waning Crescent, 2% of the Moon is Illuminated
Oct 3
Waning Crescent
Oct 4
New
Oct 11
First Quarter
Oct 18
Full
Oct 26
Last Quarter

Hourly Weather History & Observations

Time (EDT) Temp. Windchill Dew Point Humidity Pressure Visibility Wind Dir Wind Speed Gust Speed Precip Events Conditions
12:00 AM 55.4 °F - 41.0 °F 58% 29.97 in 25.0 mi NNW 6.9 mph - N/A   Clear
1:00 AM 53.6 °F - 42.8 °F 67% 29.98 in 25.0 mi WSW 4.6 mph - N/A   Clear
2:00 AM 53.6 °F - 42.8 °F 67% 30.00 in 25.0 mi WSW 4.6 mph - N/A   Clear
3:00 AM 50.0 °F - 44.6 °F 82% 30.00 in 25.0 mi West 3.5 mph - N/A   Clear
4:00 AM 44.6 °F - 42.8 °F 93% 30.02 in 25.0 mi WNW 2.3 mph - N/A   Clear
5:00 AM 46.4 °F 45.2 °F 42.8 °F 87% 30.04 in 25.0 mi NNW 3.5 mph - N/A   Clear
6:00 AM 48.2 °F - 42.8 °F 82% 30.05 in 25.0 mi Calm Calm - N/A   Clear
7:00 AM 44.6 °F 43.1 °F 42.8 °F 93% 30.07 in 45.0 mi SSW 3.5 mph - N/A   Partly Cloudy
8:00 AM 48.2 °F - 44.6 °F 87% 30.09 in 20.0 mi SW 2.3 mph - N/A   Partly Cloudy
9:00 AM 53.6 °F - 46.4 °F 77% 30.12 in 45.0 mi WSW 4.6 mph - N/A   Mostly Cloudy
10:00 AM 55.4 °F - 46.4 °F 72% 30.14 in 45.0 mi West 4.6 mph - N/A   Mostly Cloudy
11:00 AM 59.0 °F - 48.2 °F 67% 30.13 in 45.0 mi SW 5.8 mph - N/A   Mostly Cloudy
12:00 PM 64.4 °F - 48.2 °F 56% 30.12 in 45.0 mi SSW 9.2 mph - N/A   Mostly Cloudy
1:00 PM 66.2 °F - 46.4 °F 49% 30.09 in 45.0 mi SSW 6.9 mph - N/A   Partly Cloudy
2:00 PM 68.0 °F - 46.4 °F 46% 30.08 in 45.0 mi SSW 5.8 mph - N/A   Partly Cloudy
3:00 PM 68.0 °F - 44.6 °F 43% 30.06 in 45.0 mi SW 6.9 mph - N/A   Partly Cloudy
4:00 PM 69.8 °F - 44.6 °F 40% 30.05 in 45.0 mi WSW 8.1 mph - N/A   Partly Cloudy
5:00 PM 68.0 °F - 46.4 °F 46% 30.05 in 45.0 mi SW 9.2 mph - N/A   Partly Cloudy
6:00 PM 66.2 °F - 46.4 °F 49% 30.06 in 45.0 mi SW 3.5 mph - N/A   Partly Cloudy
7:00 PM 60.8 °F - 46.4 °F 59% 30.06 in 25.0 mi SW 3.5 mph - N/A   Partly Cloudy
8:00 PM 59.0 °F - 46.4 °F 63% 30.07 in 25.0 mi SW 3.5 mph - N/A   Mostly Cloudy
9:00 PM 53.6 °F - 48.2 °F 82% 30.07 in 25.0 mi WSW 3.5 mph - N/A   Mostly Cloudy
10:00 PM 57.2 °F - 48.2 °F 72% 30.07 in 25.0 mi West 4.6 mph - N/A   Mostly Cloudy
11:00 PM 57.2 °F - 50.0 °F 77% 30.06 in 25.0 mi West 3.5 mph - N/A   Mostly Cloudy